This is the latest recevied weather packets stored in our database for station/object DB0SWS-6. If no packets are shown the sender has not sent any weather packets the latest 10 day(s).
| Time | Temp. | Humidity | Pressure | Rain* | Wind** | Luminosity | Snow |
|---|---|---|---|---|---|---|---|
| 1778117609 | 8.33° C | 99% | 957 hPa | 1.52 mm | - | - | - |
| 1778115810 | 8.89° C | 10% | 956.9 hPa | 3.56 mm | - | - | - |
| 1778114010 | 8.89° C | 99% | 956.6 hPa | 3.3 mm | - | - | - |
| 1778112209 | 8.89° C | 10% | 956.6 hPa | 0.25 mm | - | - | - |
| 1778110410 | 8.89° C | 10% | 956.5 hPa | 0.51 mm | - | - | - |
| 1778108610 | 8.89° C | 99% | 956.4 hPa | 1.27 mm | - | - | - |
| 1778106809 | 8.89° C | 99% | 956.4 hPa | 0 mm | - | - | - |
| 1778105010 | 8.89° C | 99% | 956.3 hPa | 0 mm | - | - | - |
| 1778103210 | 8.89° C | 99% | 956.3 hPa | 4.32 mm | - | - | - |
| 1778101409 | 8.89° C | 99% | 956.2 hPa | 4.57 mm | - | - | - |
| 1778099611 | 9.44° C | 99% | 956.3 hPa | 5.33 mm | - | - | - |
| 1778097810 | 9.44° C | 99% | 956 hPa | 6.35 mm | - | - | - |
| 1778096010 | 9.44° C | 99% | 955.7 hPa | 5.33 mm | - | - | - |
| 1778094209 | 9.44° C | 99% | 955.3 hPa | 3.81 mm | - | - | - |
| 1778092409 | 10° C | 99% | 954.6 hPa | 2.29 mm | - | - | - |
| 1778090609 | 10° C | 99% | 954.3 hPa | 1.78 mm | - | - | - |
| 1778088809 | 10° C | 99% | 954.1 hPa | 1.78 mm | - | - | - |
| 1778087011 | 10.56° C | 99% | 953.9 hPa | 1.27 mm | - | - | - |
| 1778085210 | 10° C | 99% | 954.1 hPa | 1.02 mm | - | - | - |
| 1778083411 | 10.56° C | 98% | 954 hPa | 1.02 mm | - | - | - |
| 1778081610 | 10.56° C | 98% | 954 hPa | 1.52 mm | - | - | - |
| 1778079809 | 11.11° C | 99% | 953.8 hPa | 4.83 mm | - | - | - |
| 1778078010 | 11.11° C | 99% | 953.7 hPa | 5.59 mm | - | - | - |
| 1778076209 | 11.67° C | 98% | 953.3 hPa | 2.03 mm | - | - | - |
| 1778074411 | 12.22° C | 94% | 953.2 hPa | 1.52 mm | - | - | - |
* Rain latest hour (hover to see other rain measurements)
** Current wind speed in m/s (hover to see current wind gust speed)